Temperature
14 13 13 13 13 13 13 13 13 13 14 14 14 14 14 14 14 14 14 14 14 14 14 14 14 14 14 14 14 15 15 15 14 14 15 14 14 14 14 14 14 14 14
14 13 13 13 13 13 13 13 13 13 13 13 13 14 14 14 14 14 14 14 14 14 14 14 14 14 14 14 14 14 14 14 14 14 14 14 14 14 14 14 14 14 14
13 13 13 13 12 12 12 13 13 13 13 13 13 13 14 14 14 14 14 14 14 14 14 14 14 14 14 14 14 14 14 14 14 14 14 14 14 14 14 14 14 14 14
13 13 12 12 12 12 12 12 12 13 13 13 13 13 13 13 13 13 13 13 13 14 14 14 14 14 14 14 14 14 14 14 14 14 14 14 14 14 14 14 14 13 14
12 12 12 12 12 12 12 12 12 12 12 13 13 13 13 13 13 13 13 13 13 13 13 13 13 13 13 13 13 13 13 14 13 14 14 14 14 13 13 13 13 13 13
12 12 12 11 11 11 12 12 12 12 12 12 13 13 13 13 13 13 13 13 13 13 13 13 13 13 13 13 13 13 13 13 13 13 13 13 13 13 13 13 13 13 13
12 12 11 11 11 11 11 11 11 11 12 12 12 12 12 12 13 13 13 13 13 13 13 13 13 13 13 13 13 13 13 13 13 13 13 13 13 13 13 13 13 13 13
11 11 11 11 11 11 11 11 11 11 11 12 12 12 12 12 12 12 12 12 12 12 12 12 12 12 12 12 12 12 12 12 13 13 13 13 13 13 13 13 13 13 13
11 11 11 11 11 11 11 11 11 11 11 11 11 11 12 12 12 12 12 12 12 12 12 12 12 12 12 12 12 12 12 12 12 12 12 12 12 12 12 12 12 12 12
10 10 10 10 10 10 10 10 11 11 11 11 11 11 11 11 11 11 12 12 12 12 12 12 12 12 12 12 11 12 12 12 12 12 12 12 12 12 12 12 12 12 12
10 10 10 10 10 10 10 10 10 10 10 10 10 11 11 11 11 11 11 11 11 11 11 11 11 11 11 11 11 11 11 11 12 12 12 11 11 12 11 12 12 12 12
10 10 9 9 10 10 10 10 10 10 10 10 10 10 10 11 11 11 11 11 11 11 11 11 11 11 11 11 11 11 11 11 11 11 11 11 11 11 11 11 11 11 11
9 9 9 9 9 9 9 9 9 9 9 10 10 10 10 10 10 10 10 10 10 11 11 11 11 11 11 11 11 11 11 11 11 11 11 11 11 11 11 11 11 11 11
9 9 9 9 9 9 9 9 9 9 9 9 9 9 10 10 10 10 10 10 10 10 10 10 10 10 10 10 10 10 10 10 10 10 10 10 10 10 10 10 10 10 10
9 8 9 9 8 8 8 9 9 9 9 9 9 9 9 9 9 9 9 10 10 10 10 10 10 10 10 10 10 10 10 10 10 10 10 10 10 10 10 10 10 10 10
9 8 8 8 8 8 8 8 8 8 8 8 9 9 9 9 9 9 9 9 9 9 9 9 9 9 9 9 9 9 9 9 9 9 9 9 10 10 10 10 10 10 10
8 8 8 8 8 8 8 8 8 8 8 8 8 8 8 8 8 8 8 9 9 9 9 9 9 9 9 9 9 9 9 9 9 9 9 9 9 9 9 9 9 9 9
8 8 7 7 7 7 7 7 7 7 7 7 7 7 7 7 8 8 8 8 8 8 8 8 8 8 8 8 8 8 9 9 9 9 9 9 9 9 9 9 9 9 9
7 7 7 7 7 7 7 7 7 7 7 7 7 7 7 7 7 7 7 8 7 8 8 8 8 8 8 8 8 8 8 8 8 8 8 8 8 8 8 8 8 8 8
7 7 7 6 6 6 6 6 6 6 6 6 6 6 7 7 7 7 7 7 7 7 7 7 7 7 7 7 7 7 7 7 8 8 8 8 8 8 8 8 8 8 8
6 6 6 6 6 6 6 6 6 6 6 6 6 6 6 6 6 6 6 6 6 7 7 7 7 7 7 7 7 6 7 7 7 7 7 7 7 7 7 7 7 7 7
5 5 5 6 5 5 5 5 5 5 6 6 6 6 6 6 6 6 6 6 6 6 6 6 6 6 6 6 6 6 6 6 6 6 7 7 7 7 7 7 7 7 7
5 5 5 5 5 5 5 5 5 5 5 5 5 5 5 5 5 5 5 5 5 5 5 5 5 5 5 5 5 5 5 5 5 6 6 6 6 6 6 6 6 6 6
4 4 4 4 4 4 4 4 4 4 4 5 4 4 5 5 5 5 5 5 5 5 5 5 5 5 5 5 5 5 5 5 4 4 5 6 5 5 5 6 6 6 6
3 4 4 4 4 4 4 4 4 4 4 4 4 4 4 4 4 4 4 4 4 4 4 4 4 4 4 4 4 4 4 4 4 4 4 5 5 5 5 5 5 5 5
3 3 3 3 3 3 3 3 3 3 3 3 3 3 3 3 3 3 3 3 3 3 4 4 4 4 4 4 4 4 4 4 4 4 4 4 4 4 4 5 4 4 4
Wind_Speed
2 2 2 4 7 9 9 9 10 10 11 11 11 11 11 11 11 11 11 12 13 14 14 14 15 15 16 16 16 16 16 16 16 16 16 16 16 16 16 16 15 15 16
2 3 4 5 8 9 9 9 9 10 10 11 11 11 11 11 11 11 11 12 12 13 14 14 15 15 15 15 16 16 16 16 17 16 16 15 15 15 15 15 14 14 16
2 3 5 7 9 9 9 9 9 9 9 10 10 10 10 10 10 11 11 12 12 13 13 14 14 15 15 15 15 16 16 16 16 15 14 12 13 14 15 15 15 15 16
4 4 5 8 9 9 9 9 9 9 9 9 9 10 10 10 10 10 11 11 12 12 13 13 14 14 14 15 15 15 15 15 15 14 13 12 11 13 14 14 14 15 15
4 4 5 9 9 9 9 9 9 9 8 9 9 10 10 10 9 10 11 11 11 11 12 13 13 13 13 14 14 14 14 14 14 13 12 11 11 12 13 13 14 14 15
3 5 5 8 9 9 9 9 9 8 8 9 9 9 9 9 9 9 10 10 10 10 11 12 12 12 13 13 14 13 13 13 13 12 12 11 10 11 12 13 13 14 14
3 4 5 7 9 9 9 9 8 8 8 8 9 9 9 9 9 9 9 9 10 10 10 11 11 11 12 12 12 12 12 13 12 11 10 10 10 10 11 12 12 12 13
4 4 4 6 8 8 8 8 8 8 8 8 8 8 8 8 8 9 8 9 9 9 9 10 10 11 11 11 11 11 11 12 11 10 9 9 9 10 11 11 11 11 11
4 4 4 5 6 7 7 8 8 7 7 7 8 8 8 8 8 7 7 8 9 9 9 9 10 10 10 10 11 11 12 12 11 9 8 8 9 10 10 10 10 10 10
4 4 4 4 5 6 6 7 8 8 8 7 8 8 8 8 8 7 8 8 8 8 9 9 10 10 10 10 11 11 11 11 11 9 8 8 9 9 9 9 9 9 9
2 2 3 3 4 5 6 6 7 8 8 8 8 9 9 8 8 8 8 8 8 8 8 9 10 10 10 10 10 11 10 9 9 8 7 7 8 9 9 9 9 8 8
2 1 2 2 3 4 4 5 6 6 7 8 7 8 8 8 8 8 8 9 8 8 8 9 9 9 9 9 9 10 9 9 8 7 7 8 8 8 9 9 9 8 9
2 2 1 2 3 4 4 5 5 6 6 7 7 7 7 7 7 7 7 8 8 8 8 8 9 9 8 8 8 8 8 8 7 7 7 8 7 8 8 8 9 9 9
1 1 1 1 2 3 4 4 5 4 5 4 5 6 6 5 5 5 5 6 6 7 7 7 7 8 8 8 8 8 8 7 7 7 7 7 7 7 7 7 7 8 8
2 2 1 1 2 3 3 3 4 4 4 4 5 5 6 4 4 4 4 5 5 6 6 5 5 6 6 7 6 7 6 7 7 7 7 7 7 7 6 5 6 6 6
2 2 1 2 2 3 3 3 3 4 4 4 4 5 6 5 4 4 3 3 4 4 5 5 5 5 5 5 5 6 5 5 6 6 6 6 7 7 6 6 6 6 5
2 2 2 2 2 2 3 3 3 4 4 4 4 5 5 5 5 4 3 3 3 4 5 5 6 6 4 4 4 5 5 5 5 6 6 6 6 7 7 6 6 6 5
1 1 2 1 2 2 2 3 3 4 4 4 4 5 5 5 5 4 3 2 3 4 4 4 4 3 3 3 2 2 3 4 4 4 5 6 6 6 6 7 6 6 5
1 1 1 1 2 2 2 2 3 4 3 3 4 4 4 5 5 4 3 3 4 4 3 3 2 2 3 3 2 2 3 3 3 3 4 4 5 5 5 6 7 6 5
2 1 1 1 1 2 2 2 2 3 2 2 2 3 4 4 5 4 3 4 4 3 2 2 3 2 2 2 3 3 2 2 3 2 2 3 4 4 5 5 6 6 6
3 3 2 1 1 2 1 1 1 1 1 1 1 2 3 3 4 4 4 3 3 3 2 2 3 3 2 2 2 2 2 1 1 1 2 2 2 3 4 5 5 4 4
3 3 2 1 0 1 1 1 1 1 1 1 1 2 2 3 4 4 4 3 3 3 3 2 2 2 1 1 2 2 1 2 2 2 2 1 2 3 3 3 3 3 3
2 2 1 2 1 1 1 2 2 2 2 1 1 0 1 2 3 3 3 3 3 3 3 3 3 3 2 0 1 2 2 2 1 2 1 1 2 2 2 2 2 2 2
1 1 2 2 3 2 2 2 2 2 1 1 1 1 0 1 2 2 3 3 3 3 2 3 2 2 3 2 0 0 1 2 2 1 2 1 2 2 2 3 2 2 2
1 1 2 2 3 3 2 2 2 1 0 0 1 1 1 0 1 2 2 2 2 2 3 2 2 2 2 3 2 1 1 1 0 2 2 2 2 2 2 2 2 2 3
2 2 2 3 3 3 3 3 1 1 1 1 0 0 1 0 0 0 1 1 1 2 2 3 3 2 2 2 2 2 2 2 2 2 3 3 3 2 2 2 2 2 3
Wind_Direction
234 269 199 138 125 113 104 97 92 89 86 87 93 94 91 89 88 87 87 89 86 86 86 85 85 83 82 83 82 79 77 77 76 76 77 75 76 77 77 77 77 77 79
183 206 173 141 130 120 112 103 95 91 88 87 90 94 93 92 91 90 89 89 88 87 87 87 87 85 83 84 84 81 78 76 74 72 72 72 75 77 78 77 78 80 80
125 155 152 141 130 123 116 107 99 95 92 88 89 92 94 95 95 92 90 89 89 88 88 89 88 86 85 85 85 83 80 76 73 70 68 68 74 77 78 77 78 81 81
125 131 140 139 131 125 118 111 105 102 97 93 90 92 93 94 94 93 89 89 89 90 90 91 89 86 86 87 86 84 81 76 73 69 64 64 72 78 79 77 77 80 82
109 120 135 137 133 127 121 116 112 108 105 99 93 90 91 92 93 92 90 89 89 91 92 93 91 89 88 88 88 85 81 77 72 68 63 63 67 78 80 78 77 78 80
103 116 134 140 136 131 125 122 117 113 109 103 97 93 90 90 91 92 91 90 91 93 96 95 94 91 90 90 88 85 82 78 74 67 63 65 68 78 81 80 77 77 80
115 113 129 141 137 132 129 128 124 121 114 106 100 97 94 90 89 91 90 91 92 95 98 97 96 96 93 91 88 85 82 79 76 69 64 66 72 78 82 83 81 79 80
112 100 115 132 132 134 132 130 126 124 117 110 104 100 96 92 90 88 89 92 95 95 98 97 96 95 94 92 88 83 82 81 75 70 65 67 74 79 82 84 85 85 83
94 87 87 101 113 124 127 128 124 123 118 113 108 103 98 95 93 90 88 89 92 94 96 99 96 94 92 92 88 83 81 79 73 69 68 70 75 79 82 83 84 86 86
84 75 70 81 93 107 119 126 122 120 117 111 106 99 93 89 85 83 85 85 87 93 94 99 97 94 92 89 86 83 80 75 69 66 65 73 78 81 81 82 84 85 88
95 73 66 68 83 99 113 123 119 116 114 109 101 98 91 84 80 77 79 82 84 88 93 96 97 94 91 85 81 79 77 70 68 62 61 72 79 80 79 82 84 85 90
176 157 79 82 89 102 111 111 108 107 107 104 102 101 96 90 85 81 78 76 76 79 85 86 91 91 87 80 74 74 71 67 62 56 59 70 78 79 78 78 83 85 86
191 178 137 103 105 109 109 109 105 107 105 104 104 104 101 93 85 79 74 70 71 74 74 79 82 84 85 82 76 71 68 66 59 54 54 63 72 77 76 78 82 83 82
175 195 172 128 115 116 115 116 115 111 111 111 114 114 107 93 84 81 77 76 76 77 76 76 81 83 84 82 81 74 64 62 58 54 49 55 58 69 75 81 83 80 79
195 203 201 149 137 124 117 117 119 119 126 132 128 125 122 111 102 89 81 82 80 83 85 84 84 84 81 78 77 77 66 58 56 55 49 46 48 55 66 79 86 82 78
215 213 194 171 146 134 132 127 129 132 135 134 131 138 138 130 121 107 90 82 77 83 88 95 97 92 84 83 75 70 68 61 58 56 51 45 42 44 52 59 75 77 73
224 214 195 171 132 136 139 137 132 135 138 137 136 142 143 136 130 122 108 95 88 92 90 93 92 90 85 79 69 62 62 61 59 55 53 50 46 43 44 49 60 67 68
214 195 193 173 143 131 130 132 132 134 139 143 143 143 142 138 136 127 122 118 114 105 97 96 92 89 84 79 72 49 50 53 53 58 60 56 54 51 44 40 49 60 63
270 187 162 147 155 143 120 119 122 128 130 136 138 140 143 144 143 137 133 126 121 109 98 100 92 107 107 89 78 54 39 40 47 53 54 52 55 57 51 44 44 49 57
25 51 100 121 121 107 102 100 104 113 111 115 123 129 134 144 148 140 127 121 120 111 103 100 107 93 111 113 86 55 21 19 43 42 37 44 46 50 50 48 46 45 44
31 39 48 74 104 122 117 130 141 164 173 145 126 127 139 144 147 143 131 125 125 131 138 124 113 107 93 101 92 59 14 16 23 12 20 34 38 38 46 47 44 43 34
30 21 22 40 74 152 159 156 155 137 140 130 106 96 126 138 143 147 138 146 143 135 132 127 117 117 112 110 123 113 15 339 343 340 355 5 12 27 31 28 35 33 30
7 2 10 16 17 29 90 97 84 79 70 64 41 65 64 131 134 134 147 143 147 150 162 166 160 149 159 177 101 137 153 216 297 319 317 333 350 7 357 1 3 357 358
316 356 19 29 39 40 83 116 133 147 169 200 192 201 123 105 123 138 149 150 149 151 157 178 157 169 155 172 181 63 134 157 171 279 306 315 319 319 329 335 337 316 311
355 26 29 46 46 42 56 109 132 115 119 105 113 131 130 89 124 142 147 149 154 165 167 163 162 174 173 174 176 158 119 48 166 192 253 287 317 302 315 313 309 300 301
24 36 41 51 39 32 42 54 77 120 119 106 134 171 181 198 197 106 142 145 166 177 181 180 173 187 191 181 179 177 174 176 193 194 230 260 276 293 306 323 299 280 287
Height
1525 1527 1528 1530 1531 1532 1533 1534 1535 1536 1536 1537 1538 1538 1539 1539 1540 1540 1541 1542 1543 1543 1544 1544 1545 1545 1545 1546 1546 1547 1547 1547 1547 1547 1548 1548 1548 1548 1548 1548 1549 1549 1549
1524 1526 1528 1529 1531 1532 1533 1534 1536 1536 1537 1537 1538 1539 1539 1540 1541 1541 1542 1543 1543 1544 1545 1545 1546 1546 1547 1547 1547 1548 1548 1548 1549 1549 1549 1549 1550 1550 1550 1550 1551 1551 1551
1524 1526 1528 1529 1531 1532 1533 1535 1535 1537 1537 1538 1538 1539 1540 1541 1541 1542 1542 1543 1544 1545 1545 1546 1547 1547 1548 1548 1548 1549 1549 1550 1550 1550 1551 1551 1551 1552 1552 1552 1552 1553 1553
1524 1526 1527 1529 1531 1532 1533 1534 1535 1536 1537 1538 1539 1539 1540 1541 1542 1542 1543 1544 1544 1545 1546 1547 1547 1548 1549 1549 1550 1550 1550 1551 1551 1552 1552 1552 1553 1553 1553 1554 1554 1554 1554
1524 1526 1527 1529 1530 1532 1533 1534 1535 1536 1537 1538 1539 1539 1540 1541 1542 1543 1543 1544 1545 1546 1546 1547 1548 1549 1549 1550 1550 1551 1551 1552 1552 1553 1553 1554 1554 1554 1555 1555 1555 1555 1556
1524 1525 1527 1528 1530 1531 1533 1534 1535 1536 1537 1538 1539 1539 1540 1541 1542 1543 1544 1544 1545 1546 1547 1548 1549 1549 1550 1551 1551 1552 1552 1553 1553 1554 1554 1555 1555 1556 1556 1556 1556 1556 1557
1523 1525 1526 1528 1530 1531 1532 1533 1534 1535 1537 1538 1538 1539 1540 1541 1542 1543 1544 1545 1545 1546 1547 1548 1549 1550 1550 1551 1552 1552 1553 1554 1554 1554 1555 1556 1556 1557 1557 1557 1557 1557 1558
1523 1525 1526 1528 1529 1530 1531 1533 1534 1535 1536 1537 1538 1539 1540 1541 1542 1543 1544 1545 1546 1546 1547 1548 1549 1550 1551 1551 1552 1553 1554 1554 1555 1555 1556 1556 1557 1557 1558 1558 1558 1558 1558
1523 1524 1526 1527 1528 1530 1531 1532 1533 1534 1535 1537 1537 1538 1539 1540 1542 1543 1544 1545 1545 1546 1547 1548 1549 1550 1550 1551 1552 1553 1554 1554 1555 1555 1556 1557 1557 1558 1558 1558 1559 1559 1559
1522 1523 1525 1526 1527 1528 1530 1531 1532 1533 1535 1536 1537 1538 1539 1540 1541 1542 1543 1544 1545 1546 1546 1547 1548 1549 1550 1551 1552 1553 1554 1554 1555 1556 1556 1557 1557 1558 1558 1559 1559 1560 1560
1521 1522 1524 1525 1526 1527 1529 1530 1531 1532 1534 1535 1536 1537 1538 1539 1540 1542 1543 1544 1544 1545 1546 1547 1547 1549 1550 1551 1552 1553 1554 1554 1555 1556 1556 1557 1558 1558 1559 1559 1559 1560 1560
1518 1520 1522 1523 1525 1526 1527 1528 1530 1531 1532 1533 1535 1536 1537 1538 1540 1541 1542 1543 1544 1545 1545 1546 1547 1548 1549 1550 1551 1552 1553 1554 1555 1555 1556 1557 1558 1558 1558 1559 1559 1560 1560
1517 1519 1520 1522 1523 1524 1525 1526 1528 1529 1531 1532 1533 1535 1536 1537 1538 1540 1541 1542 1543 1543 1544 1545 1546 1547 1548 1549 1550 1552 1553 1553 1554 1555 1556 1557 1557 1558 1558 1559 1559 1560 1560
1516 1517 1518 1520 1521 1522 1524 1525 1526 1527 1529 1530 1532 1533 1534 1535 1537 1538 1539 1540 1541 1542 1543 1544 1545 1546 1547 1549 1550 1551 1552 1553 1553 1554 1555 1556 1557 1557 1558 1558 1559 1559 1560
1514 1515 1516 1518 1519 1520 1521 1523 1524 1525 1527 1528 1530 1531 1532 1533 1534 1536 1537 1538 1540 1541 1542 1543 1544 1545 1546 1547 1549 1550 1551 1552 1552 1553 1554 1555 1556 1556 1557 1557 1558 1559 1559
1511 1513 1514 1515 1517 1518 1519 1521 1522 1523 1524 1526 1527 1529 1530 1531 1532 1534 1535 1536 1537 1539 1540 1541 1542 1543 1545 1546 1547 1548 1549 1550 1551 1552 1553 1553 1554 1555 1556 1556 1557 1558 1558
1509 1511 1512 1513 1514 1515 1517 1518 1519 1520 1522 1523 1525 1526 1528 1529 1530 1531 1533 1534 1535 1537 1538 1539 1540 1541 1543 1544 1545 1547 1548 1549 1550 1550 1551 1552 1553 1553 1554 1555 1555 1556 1557
1507 1508 1509 1510 1512 1513 1514 1515 1517 1518 1520 1521 1523 1524 1525 1527 1528 1529 1530 1531 1533 1534 1536 1537 1538 1539 1541 1542 1543 1544 1546 1547 1547 1548 1549 1550 1551 1552 1552 1553 1554 1554 1555
1505 1506 1507 1508 1509 1510 1511 1513 1514 1516 1517 1519 1520 1521 1523 1524 1525 1526 1528 1529 1530 1532 1533 1535 1536 1537 1538 1539 1541 1542 1543 1544 1545 1546 1547 1548 1549 1549 1550 1551 1551 1552 1553
1503 1503 1504 1505 1507 1508 1509 1510 1512 1513 1515 1516 1517 1519 1520 1522 1523 1524 1525 1526 1528 1529 1530 1532 1533 1535 1536 1537 1538 1539 1541 1542 1543 1544 1545 1545 1546 1547 1548 1548 1549 1549 1550
1500 1501 1502 1503 1504 1505 1506 1507 1508 1510 1512 1513 1515 1516 1517 1518 1519 1521 1522 1524 1525 1526 1528 1529 1530 1532 1533 1534 1535 1536 1538 1539 1540 1541 1542 1543 1543 1544 1545 1545 1546 1547 1548
1497 1498 1499 1500 1501 1503 1504 1505 1506 1508 1509 1511 1512 1513 1515 1516 1517 1518 1519 1521 1522 1523 1525 1526 1527 1529 1530 1531 1533 1534 1535 1537 1537 1538 1539 1540 1540 1541 1542 1542 1543 1544 1545
1495 1496 1497 1498 1499 1501 1502 1503 1504 1505 1506 1508 1508 1510 1511 1513 1514 1515 1517 1518 1519 1520 1521 1523 1524 1526 1527 1528 1530 1532 1533 1532 1533 1534 1535 1536 1537 1537 1538 1539 1540 1541 1542
1493 1494 1495 1496 1497 1498 1499 1500 1501 1502 1503 1504 1506 1507 1508 1509 1510 1512 1513 1514 1516 1517 1518 1520 1521 1523 1524 1525 1527 1528 1530 1530 1531 1531 1532 1532 1533 1534 1535 1536 1536 1537 1538
1491 1493 1494 1495 1496 1496 1497 1499 1499 1500 1501 1502 1503 1504 1505 1506 1507 1508 1510 1511 1512 1513 1515 1516 1517 1519 1520 1522 1523 1524 1526 1527 1527 1528 1527 1528 1530 1531 1531 1532 1532 1533 1534
1489 1490 1492 1492 1493 1494 1495 1496 1497 1498 1498 1499 1500 1500 1502 1503 1504 1505 1506 1507 1508 1509 1511 1512 1513 1515 1516 1518 1519 1521 1522 1523 1524 1524 1524 1524 1525 1526 1527 1528 1528 1529 1529